Wind_Speed
16 16 16 16 16 15 15 15 16 16 15 16 16 16 16 15 15 15 15 15 16 16 16 17 17 18 17 16 16 16 17 20 22 24 28 29 25 23 20 14 12 16 17 15 13 11 11 12 13 17 17 14 11 9 8 7 6 3 0 2 4 3 4 3 3 4 2 3 6 6 6 3 3 2 4 6 6 9 7 4 5 6 5 4 5 5 10 17
16 16 16 16 16 15 15 15 15 15 16 16 16 16 16 16 15 15 14 15 15 16 16 16 17 18 17 15 16 16 17 19 22 28 33 30 25 25 24 19 14 13 15 15 15 13 10 11 12 17 17 11 9 7 7 6 5 4 2 3 4 4 5 5 7 9 6 5 10 12 7 3 5 4 5 4 2 6 6 3 5 6 6 7 7 9 13 17
17 16 16 15 16 15 15 15 15 15 15 16 16 16 16 16 15 15 15 14 14 15 16 16 16 17 16 15 14 15 17 17 23 33 34 28 27 28 25 22 18 16 15 13 14 14 12 12 11 15 17 11 9 9 7 7 5 5 5 3 4 5 5 7 10 11 12 11 11 12 8 4 4 3 5 4 2 4 5 5 6 7 10 10 11 14 17 18
18 18 17 16 15 15 15 15 16 15 15 15 16 16 16 16 15 15 15 14 14 15 16 15 16 16 16 15 14 14 13 13 21 30 29 25 28 28 27 25 21 19 18 15 13 14 14 13 11 12 14 10 10 11 8 10 8 5 6 4 6 4 4 9 10 13 16 15 11 9 6 5 4 4 5 4 4 2 7 11 11 11 13 14 15 18 19 19
18 19 18 17 16 15 15 15 16 16 15 15 15 15 16 16 15 14 14 14 14 15 16 15 15 15 15 14 14 12 7 6 8 13 15 17 21 24 27 25 23 20 18 18 16 15 15 14 11 12 11 7 9 8 6 14 12 5 7 10 12 7 5 11 11 14 17 18 16 9 4 5 5 6 7 5 5 3 5 9 12 15 16 16 16 19 21 20
18 18 19 19 17 16 16 15 15 15 15 14 14 14 14 15 16 15 14 13 14 15 15 15 15 15 15 14 13 12 9 4 4 9 7 6 7 12 20 24 25 22 19 19 20 17 16 15 12 12 10 5 9 8 6 16 16 6 7 12 16 13 9 12 12 16 19 18 16 9 4 4 5 6 6 7 7 5 3 4 6 9 14 18 17 20 23 22
19 18 18 18 18 18 17 16 15 15 15 14 13 13 13 14 15 15 14 13 13 14 14 15 15 15 15 14 13 13 16 17 6 12 13 12 9 3 6 19 25 24 22 21 22 21 17 17 15 13 10 4 8 9 8 15 17 10 6 9 14 15 14 16 14 16 18 16 17 15 9 5 2 3 4 6 9 8 7 8 7 7 10 18 21 22 22 22
22 20 18 18 18 17 18 17 15 15 15 14 13 13 12 13 14 15 14 13 13 13 14 15 14 16 15 14 14 13 21 27 14 7 11 13 8 6 6 10 24 27 25 23 24 24 21 20 19 16 8 5 8 10 11 11 11 11 7 8 11 12 16 18 15 13 16 19 24 21 14 10 7 5 6 11 12 9 7 9 10 8 9 19 23 24 23 23
25 22 19 19 18 17 17 17 16 15 15 14 13 13 12 12 13 14 14 13 13 13 14 14 14 16 15 15 14 12 22 28 20 12 8 3 4 8 9 3 20 28 27 25 24 25 23 21 23 19 8 9 11 10 15 11 6 10 12 10 9 11 15 16 16 16 18 21 23 17 13 17 14 6 7 13 14 12 10 10 10 8 9 16 21 25 25 24
24 22 20 19 18 16 16 16 16 15 14 14 13 13 12 12 13 13 13 13 13 13 14 14 14 16 15 16 14 11 19 23 20 20 19 18 17 15 12 7 12 26 28 27 26 27 26 22 23 20 9 9 12 9 15 12 4 10 15 15 14 14 14 13 14 19 20 21 22 13 11 20 16 5 6 10 9 10 12 10 9 10 11 14 18 23 25 24
22 21 20 20 19 16 15 15 16 16 14 13 13 13 12 12 12 12 13 13 13 13 13 14 14 15 16 17 17 12 13 11 10 15 18 21 17 13 12 9 7 21 27 27 27 29 28 23 22 20 9 6 9 9 13 12 7 8 11 10 12 14 15 13 12 18 17 13 18 14 12 18 11 4 10 14 11 10 12 11 9 11 13 15 17 20 24 25
22 21 20 20 19 16 15 14 14 16 15 13 13 13 12 12 11 11 12 12 13 12 13 15 14 15 15 17 24 23 18 8 5 10 11 13 12 8 8 7 5 12 22 27 28 28 27 26 23 15 5 4 6 6 10 13 10 9 7 3 5 7 10 12 12 15 11 8 17 15 9 10 5 6 16 19 16 14 15 17 16 14 15 16 18 21 23 24
20 19 19 19 20 17 14 14 13 14 15 14 13 12 11 12 11 11 11 10 11 12 13 15 13 14 13 15 23 26 22 14 9 11 9 9 12 10 8 8 6 6 13 23 26 25 26 26 23 16 7 4 4 2 5 11 11 8 6 2 2 4 5 9 11 9 6 11 20 12 5 7 5 12 21 18 17 18 18 20 21 21 19 18 20 22 24 24
18 16 19 19 20 19 15 13 13 13 14 14 12 11 11 10 10 11 10 9 10 11 12 13 12 12 13 15 20 21 19 16 16 15 10 8 10 11 9 8 7 5 8 17 21 20 23 23 20 16 11 7 4 2 2 5 8 6 4 3 2 5 4 6 10 10 7 13 18 10 5 7 5 12 19 15 15 18 19 22 23 25 24 20 20 23 26 25
20 14 16 19 20 20 17 13 11 12 13 13 13 11 10 9 9 10 9 9 9 10 11 11 11 10 10 15 18 17 15 17 20 17 10 8 9 9 10 9 9 9 9 14 17 16 18 19 16 11 8 8 4 1 1 1 2 4 5 5 4 5 3 3 9 12 9 9 12 9 6 6 5 11 17 14 14 17 20 24 24 26 27 25 21 23 26 27
22 16 15 18 19 20 19 14 11 11 12 13 13 11 10 9 8 8 8 8 8 9 9 9 11 10 7 9 12 11 14 19 21 18 12 9 9 7 8 11 12 13 10 12 16 16 16 16 13 8 6 5 2 1 3 2 1 3 7 7 6 7 3 1 5 10 10 5 5 8 5 6 5 8 14 14 16 19 21 25 26 25 28 28 25 23 25 27
23 21 18 17 17 18 19 15 11 10 11 12 13 11 9 8 7 7 7 7 7 6 7 8 9 9 8 8 7 8 13 18 20 19 17 12 10 8 8 12 15 15 11 10 12 12 13 12 8 6 5 4 3 3 4 6 6 5 6 7 7 8 5 3 3 6 9 7 6 8 7 10 9 9 14 15 19 21 21 25 25 23 24 25 25 24 25 27
23 24 21 19 18 16 17 16 11 9 11 12 12 11 8 7 6 6 6 6 5 4 5 8 7 5 8 9 8 9 10 12 16 19 19 15 12 9 8 10 14 16 13 8 8 9 10 9 6 4 3 3 4 5 7 9 10 9 7 7 7 6 6 5 3 4 7 6 8 9 9 13 12 12 16 18 19 19 20 25 25 20 17 18 20 22 25 28
21 23 23 21 19 17 15 16 11 9 10 12 11 9 6 5 5 6 6 5 5 3 2 7 11 7 2 3 5 11 11 9 11 15 19 18 16 12 8 8 11 14 11 5 5 9 8 5 4 5 4 5 7 11 12 7 7 11 10 7 6 6 6 5 4 4 4 5 8 9 9 10 11 11 12 17 20 18 19 23 22 17 16 18 19 20 22 26
22 23 23 21 20 18 16 14 10 7 9 11 9 7 4 2 2 3 5 8 11 10 6 6 13 13 4 4 1 5 8 9 9 12 15 17 17 14 8 5 6 8 7 4 4 7 8 4 4 7 8 8 8 11 10 2 2 7 7 5 6 6 7 6 6 4 3 6 7 6 7 9 10 9 9 15 17 16 17 18 21 21 20 19 19 20 21 23
22 22 22 19 18 19 17 12 7 6 8 10 9 6 3 2 0 1 4 8 12 15 15 10 9 13 12 9 8 7 4 6 9 10 12 15 16 12 8 5 3 3 4 5 4 5 7 6 8 11 10 4 3 7 7 3 1 3 4 6 6 7 7 5 5 3 3 2 5 4 6 8 8 7 8 11 9 9 13 15 19 24 24 21 18 19 21 21
22 20 20 19 17 18 16 9 3 4 6 7 7 6 4 4 3 3 3 5 9 11 15 16 13 14 13 10 10 8 5 2 8 11 12 15 17 12 8 6 4 2 3 5 4 4 5 6 11 9 5 2 1 3 5 6 4 2 3 4 5 5 3 2 3 3 2 1 3 4 6 8 8 9 10 11 10 11 16 16 17 21 23 24 22 20 21 21
22 19 19 19 18 17 13 6 0 1 3 5 5 5 5 6 6 6 4 4 7 8 10 15 18 20 19 13 9 7 5 3 5 11 14 16 17 15 10 7 4 3 3 4 5 5 5 6 7 4 4 4 4 2 3 4 4 4 3 3 5 4 3 4 4 4 1 1 3 3 6 7 8 10 10 14 16 17 21 21 20 20 20 23 24 22 22 23
20 21 20 19 19 16 9 1 3 1 3 3 4 4 5 6 7 6 4 3 4 5 8 12 15 19 22 18 9 5 6 6 5 8 14 16 15 13 10 7 5 3 3 5 5 6 5 2 3 6 5 5 3 2 5 4 4 5 5 6 6 4 5 6 2 2 1 2 3 1 6 8 8 10 10 12 13 14 18 20 20 22 23 24 25 26 26 26
21 22 20 19 20 14 4 2 4 1 2 1 5 5 6 6 7 5 2 1 3 4 4 6 10 12 15 15 10 6 4 7 9 9 11 17 16 10 7 8 6 5 6 6 5 6 7 4 2 4 4 6 5 5 6 5 5 6 6 8 7 5 6 6 1 3 2 3 3 4 4 8 6 9 12 10 9 10 13 14 18 24 26 25 26 28 30 30
22 21 19 19 19 11 1 3 3 1 1 3 7 7 4 3 4 6 3 3 2 4 3 2 5 6 9 11 13 10 1 5 10 10 10 16 18 10 6 7 4 5 6 5 3 4 4 5 3 3 4 6 6 5 5 6 5 5 5 7 8 6 7 7 3 1 2 4 2 4 5 9 5 8 11 8 9 12 11 10 15 22 25 25 27 29 32 33
21 20 18 17 15 8 2 1 3 2 3 3 7 6 2 3 4 5 2 4 2 4 4 1 2 4 6 9 15 11 1 2 4 7 11 14 16 9 4 5 3 3 5 4 3 3 2 4 4 4 3 4 4 4 5 8 6 4 4 7 8 9 10 9 5 5 5 2 2 2 3 7 8 10 8 6 9 13 10 9 11 16 22 25 29 31 33 35
18 18 16 15 11 6 5 2 4 3 3 3 5 2 1 3 6 5 3 3 1 4 3 1 1 4 6 8 17 12 4 5 4 3 10 11 12 7 2 3 3 4 6 5 5 2 3 5 5 5 4 3 5 5 5 8 5 3 4 6 7 9 9 8 7 6 5 2 4 4 3 4 11 8 4 6 11 14 13 11 9 12 20 25 28 32 33 34
16 16 14 13 9 6 5 4 4 3 1 3 4 1 3 4 5 3 4 2 1 2 2 1 1 4 6 8 15 9 4 4 2 3 7 9 11 7 2 3 2 3 5 5 6 1 3 3 3 5 5 4 5 5 4 8 6 3 3 2 1 2 1 1 4 5 4 4 9 9 7 6 11 7 4 6 10 14 12 9 9 14 21 25 28 31 32 33
13 17 14 9 6 4 6 5 2 1 3 5 3 5 7 5 3 4 3 1 1 1 3 2 2 2 5 8 7 5 1 2 3 7 6 4 9 6 4 5 3 2 1 1 3 0 2 3 3 2 3 2 4 2 2 8 6 2 3 2 4 4 4 3 1 1 3 5 10 14 13 9 10 6 5 5 7 9 9 6 7 12 18 25 29 32 34 33
12 17 14 3 2 7 8 4 2 1 3 3 3 8 7 2 2 5 1 1 1 2 3 2 2 3 5 8 3 3 1 2 4 6 4 3 3 3 4 4 2 3 1 2 2 2 3 5 3 1 1 2 0 2 3 2 4 5 3 1 1 2 1 2 1 2 2 6 8 11 12 11 11 6 3 5 7 7 8 7 8 9 16 24 29 31 33 33
12 13 8 6 10 10 8 4 2 1 1 2 6 6 3 3 3 2 1 2 2 2 2 1 2 2 4 5 2 3 2 1 2 4 2 1 1 1 2 1 2 1 1 3 1 2 2 3 4 3 3 2 2 2 2 3 3 4 3 4 2 3 2 2 3 2 4 6 4 5 8 9 10 10 8 10 8 6 7 10 12 12 17 24 28 29 30 30
13 10 9 14 14 11 8 5 3 3 3 4 4 2 3 4 2 1 2 2 2 2 2 3 3 2 2 4 2 2 3 1 0 3 2 1 1 1 2 2 3 2 1 3 1 2 1 3 3 1 4 6 5 3 1 0 2 4 4 4 4 3 3 3 4 3 5 7 4 4 6 4 6 8 12 16 15 15 19 22 21 19 21 26 27 27 28 28
14 14 15 16 13 9 7 5 4 5 6 3 2 3 5 4 1 2 2 2 2 2 4 4 3 3 3 3 1 0 2 1 1 3 2 2 2 0 2 1 3 2 1 2 2 3 2 3 3 5 4 7 8 6 5 4 2 4 3 3 4 3 4 3 3 3 3 4 3 2 4 4 4 3 8 12 12 16 27 30 27 26 25 24 23 23 25 26
13 15 15 13 11 8 6 5 6 7 6 3 3 5 5 2 2 1 2 3 2 3 6 5 3 4 4 3 3 2 2 1 1 3 2 2 2 1 1 0 1 2 2 1 0 2 3 4 5 5 4 7 9 8 7 6 1 3 2 3 2 4 4 3 2 2 1 3 2 2 2 4 5 4 4 7 3 5 17 20 17 17 16 15 17 18 21 23
10 12 12 11 9 7 6 6 6 6 8 5 6 4 2 0 1 0 2 4 2 4 6 6 5 5 4 3 3 4 4 1 1 2 2 2 2 1 1 1 1 1 3 2 1 1 1 3 5 4 2 4 5 6 7 6 3 1 2 2 2 0 2 2 5 3 3 5 3 4 4 4 5 7 6 8 6 2 4 6 3 3 5 6 10 11 10 10
7 9 10 9 9 7 5 6 6 8 10 5 6 3 1 1 1 1 3 5 3 3 3 4 4 4 3 3 3 4 3 2 1 2 1 1 2 3 2 2 2 1 4 3 0 2 3 3 5 1 2 4 1 3 4 3 3 4 2 4 1 3 3 1 4 3 4 5 3 6 8 5 4 6 4 4 7 4 5 4 5 9 12 13 16 19 20 18
6 8 9 9 8 7 5 5 7 9 8 5 6 3 1 1 3 3 6 7 3 2 4 3 2 2 2 2 3 5 3 1 2 2 2 1 1 2 2 1 3 2 3 5 2 1 2 1 6 2 2 4 3 3 2 3 3 4 2 2 3 0 1 2 2 3 4 5 3 5 7 5 5 5 4 5 7 4 3 4 5 7 10 12 14 17 19 18
3 5 8 8 7 6 5 6 8 8 6 4 4 2 1 2 4 7 12 8 2 2 4 3 2 2 3 2 1 3 4 2 1 2 1 1 1 1 3 1 2 5 1 6 3 1 2 1 4 4 1 2 4 2 3 3 1 2 2 2 1 2 3 3 3 3 4 5 5 3 4 4 4 5 7 9 6 2 4 5 4 4 6 9 11 13 14 14
2 3 5 5 5 5 6 7 8 7 5 3 2 0 1 2 5 11 17 11 3 3 3 2 3 3 2 3 1 2 4 3 2 2 1 2 1 1 3 1 1 5 3 3 3 1 2 2 2 4 4 1 1 1 3 3 2 1 1 2 2 1 1 1 2 2 3 3 4 5 5 4 3 3 3 2 2 3 3 3 1 2 4 7 9 11 13 15
3 3 4 4 5 5 5 6 6 5 3 1 1 1 2 2 4 11 18 14 6 5 4 3 3 3 2 3 3 2 2 3 3 3 2 2 2 1 2 1 1 3 3 3 3 1 1 2 2 1 3 1 4 5 4 4 4 4 3 3 3 3 1 3 4 3 2 2 3 4 6 5 3 2 3 6 5 3 3 2 0 3 6 10 14 16 18 20
5 3 4 5 5 5 5 5 4 3 3 1 1 1 2 3 4 8 14 14 8 6 6 4 2 3 3 1 2 2 2 3 3 3 2 2 2 1 2 3 3 3 2 1 2 1 2 2 2 1 3 4 7 5 2 2 3 4 2 2 2 2 2 2 4 2 1 3 2 3 5 4 2 2 3 4 3 3 3 3 5 8 11 14 19 22 23 24
8 5 6 8 8 7 5 4 4 4 1 1 1 1 2 2 3 5 8 9 7 5 5 4 2 3 3 1 2 4 3 3 3 3 2 2 2 2 3 4 4 3 2 1 2 1 1 2 2 2 4 4 6 4 3 3 2 3 1 1 2 2 2 4 3 2 2 4 4 4 4 3 2 2 1 1 5 7 7 8 10 13 16 17 19 23 26 28
8 8 9 12 10 7 5 3 3 3 3 3 3 3 3 2 4 5 4 5 5 3 2 2 2 2 2 2 3 3 2 2 3 3 2 1 2 3 4 5 5 3 2 0 1 1 0 1 1 1 3 5 6 6 5 4 3 1 2 2 1 1 1 1 1 2 2 4 6 6 5 4 2 3 3 5 9 11 13 16 14 15 19 20 20 22 24 28
6 6 8 11 11 10 8 3 2 2 2 3 3 3 3 3 4 5 3 3 4 3 1 2 3 3 3 2 3 3 3 2 2 2 2 2 2 2 6 7 6 4 3 2 1 1 1 1 2 4 1 2 1 1 2 2 2 1 1 2 2 1 1 0 1 2 2 3 5 5 5 6 6 7 10 10 9 11 17 24 24 24 26 27 25 23 23 25
3 2 3 7 11 13 11 7 5 3 1 2 2 3 4 3 3 5 5 3 5 6 3 2 4 4 4 5 4 4 5 3 2 2 2 4 3 3 9 10 8 8 7 5 4 2 2 1 1 4 5 5 4 5 4 1 1 4 5 5 4 2 2 1 1 4 4 4 6 6 7 11 13 14 14 11 10 11 13 18 23 27 29 30 30 29 28 27
3 1 1 2 6 8 8 9 10 4 1 1 0 1 4 3 3 6 6 4 5 6 4 3 5 5 4 4 3 2 4 4 4 3 2 3 2 4 9 8 9 13 10 5 4 2 4 2 2 5 6 7 7 7 3 2 2 5 6 8 8 5 3 3 5 9 7 5 8 10 11 13 14 16 16 13 11 10 10 14 20 24 27 29 32 34 35 36
3 1 2 2 1 1 2 5 8 5 3 3 2 1 4 4 4 4 4 5 6 6 3 3 6 6 4 3 2 2 4 4 4 3 2 3 3 4 7 4 5 12 12 6 5 3 4 1 3 3 5 8 8 7 4 2 4 5 5 9 10 9 8 9 11 13 10 8 10 13 14 13 12 13 16 17 16 14 14 19 24 27 30 33 33 33 34 37
5 4 3 3 2 1 1 3 5 5 6 5 3 3 3 4 4 3 3 4 5 6 5 3 5 7 6 4 1 2 3 3 2 1 1 3 4 2 4 3 2 9 11 6 4 3 3 1 2 3 6 8 6 5 3 1 4 5 8 11 12 13 14 14 15 15 12 11 11 14 16 15 12 12 15 21 24 24 25 27 28 29 32 34 34 33 32 34
6 4 2 2 3 3 4 5 4 5 5 5 3 4 4 4 4 4 4 3 2 3 5 4 5 6 4 5 4 3 3 4 2 2 2 3 3 2 2 1 1 6 8 4 3 4 2 1 1 1 4 7 3 2 2 2 5 7 11 14 14 16 16 14 13 12 10 11 12 13 15 14 12 12 16 22 26 25 24 26 28 28 29 30 29 30 30 31
7 6 4 3 3 7 7 5 4 3 3 4 3 3 3 3 4 4 3 3 5 4 4 4 5 5 2 5 6 4 4 5 4 5 5 4 5 5 4 2 1 4 5 1 2 2 1 1 3 4 3 4 2 1 2 4 6 10 16 18 17 15 13 10 8 7 8 10 12 11 11 10 11 11 12 15 18 16 16 22 25 23 22 21 21 22 24 27
9 7 5 4 3 7 7 3 4 3 2 2 3 3 2 4 6 5 2 3 8 9 8 6 3 2 2 3 3 2 7 10 11 14 14 13 14 14 15 14 11 6 2 1 2 1 2 2 2 2 2 2 2 1 2 5 8 10 10 11 12 10 10 9 7 8 10 9 7 9 9 8 8 9 9 10 11 11 16 19 18 17 19 20 22 24 26 28
Wind_Direction
334 328 324 322 320 314 308 304 301 299 297 294 293 292 287 283 277 269 267 264 261 257 254 252 250 251 253 253 254 257 257 255 253 249 247 242 238 239 241 243 233 224 225 221 217 215 210 214 216 217 230 240 237 234 230 236 232 231 77 211 231 227 229 217 230 270 302 302 297 319 348 308 258 266 151 139 150 144 145 161 152 182 195 185 184 183 188 182
339 332 327 322 320 316 311 306 302 299 297 294 291 290 287 284 278 271 268 265 261 257 254 252 249 250 252 253 252 255 260 260 261 255 246 240 238 237 237 239 236 224 218 217 217 218 210 209 215 212 215 222 220 214 210 215 213 192 159 230 229 209 228 220 237 270 289 303 300 297 308 293 266 257 184 175 191 151 135 131 155 180 186 187 186 175 180 180
346 339 332 325 321 318 313 308 305 302 297 295 289 287 286 284 280 274 271 267 263 257 254 252 249 249 250 254 254 254 261 268 268 258 247 240 238 236 236 237 235 229 218 210 207 212 212 199 201 207 204 206 206 195 187 192 197 196 194 247 241 222 250 252 253 275 292 289 283 284 286 281 288 262 194 192 180 164 169 166 163 184 192 193 187 180 181 182
352 347 339 332 325 318 315 310 307 305 300 296 289 285 283 283 281 276 273 268 265 260 253 251 250 250 250 251 251 252 265 282 274 263 255 245 240 236 235 237 234 233 227 218 204 203 210 198 189 196 194 193 194 190 185 187 189 193 191 221 237 227 266 268 280 305 314 308 279 270 290 292 299 283 236 181 143 250 230 205 211 224 210 196 189 187 188 189
354 351 346 340 331 321 316 312 308 307 303 298 291 286 281 281 280 275 273 268 265 260 253 249 248 250 249 246 243 242 253 298 279 261 259 243 236 236 235 236 235 233 229 224 212 200 203 197 184 188 188 177 175 181 193 191 186 196 214 226 236 239 269 265 282 304 313 320 300 273 272 287 308 298 264 199 173 237 240 227 240 245 231 217 206 197 194 195
347 349 349 346 338 329 321 315 311 308 305 301 293 286 281 278 278 276 271 268 265 259 253 247 246 247 245 241 239 225 211 229 132 129 144 153 181 225 231 231 230 230 227 222 214 204 204 196 184 186 184 169 176 179 185 192 190 209 235 228 235 237 252 267 283 295 300 315 305 281 255 277 319 308 269 220 215 225 247 276 273 263 247 234 221 204 200 202
338 339 342 344 342 337 329 320 315 311 307 303 296 287 281 277 275 275 270 266 264 256 251 245 241 242 240 238 235 219 216 228 193 124 127 122 118 112 228 224 219 218 217 218 212 205 206 201 193 187 180 170 186 188 179 188 193 206 237 227 232 230 240 266 279 288 295 302 298 296 289 271 256 281 282 255 244 247 276 291 288 293 255 227 218 211 211 212
331 331 331 334 338 339 335 327 318 314 311 304 300 290 281 278 273 272 270 265 262 256 252 245 240 238 235 235 233 227 229 227 212 156 136 123 111 49 11 226 210 208 208 213 211 204 205 207 199 186 184 198 184 186 181 179 194 205 230 234 231 229 237 261 275 282 289 293 297 299 289 269 252 257 279 271 261 257 285 297 285 288 243 220 219 218 217 217
325 326 327 325 327 333 335 334 326 317 313 307 302 293 282 277 272 270 269 266 260 256 251 246 242 237 234 233 229 233 237 227 216 220 209 176 315 320 340 275 206 203 204 208 209 206 207 209 202 189 192 204 185 183 182 183 208 204 218 234 235 236 236 253 270 276 279 285 293 296 285 275 267 269 273 264 263 261 276 292 280 268 234 218 221 223 221 221
324 325 326 322 319 322 326 333 332 322 313 308 303 294 284 273 269 268 266 266 261 256 252 246 240 237 236 232 226 234 242 235 233 243 251 259 277 284 296 313 214 203 203 206 206 208 209 209 205 199 211 210 194 191 183 189 208 189 210 230 241 249 245 251 264 273 279 283 284 278 269 270 261 245 255 254 256 255 264 284 270 248 238 227 223 225 225 227
322 326 327 322 316 312 314 324 330 330 320 310 306 296 287 275 270 268 264 264 260 256 251 247 241 236 236 231 226 229 232 231 234 241 253 254 259 270 275 299 239 206 206 209 208 209 209 210 206 202 214 214 198 191 186 197 205 188 200 224 245 255 256 250 250 267 274 277 276 268 258 264 257 216 244 252 257 250 254 277 271 241 237 235 228 225 226 229
316 324 326 324 319 308 304 312 322 332 329 317 310 299 289 279 272 269 264 263 262 260 253 246 240 236 238 239 235 229 223 213 206 226 242 240 235 250 261 271 260 218 213 213 212 210 209 211 213 215 223 195 178 172 195 200 196 199 192 192 263 259 256 240 230 251 257 267 273 270 263 259 236 223 243 250 256 256 255 267 270 255 244 238 232 226 226 227
316 323 326 324 321 312 297 299 310 326 333 325 314 303 292 279 273 270 262 262 263 260 255 248 241 238 239 246 243 237 234 231 223 226 227 213 216 223 232 241 248 254 230 219 217 214 210 214 223 238 246 204 174 153 210 193 180 191 184 152 289 274 259 225 215 223 230 264 263 252 246 248 228 236 241 244 252 256 257 259 262 262 256 246 237 231 227 227
321 323 325 319 320 322 303 290 298 314 327 327 316 306 295 279 272 269 262 259 258 256 256 253 250 245 241 247 247 243 242 238 225 219 211 200 206 213 221 233 235 254 236 216 217 217 214 219 230 237 232 215 215 286 304 182 177 167 152 156 194 244 243 196 193 178 186 245 243 227 244 252 248 248 245 245 251 254 254 255 256 258 259 253 242 236 233 230
326 316 319 318 320 325 313 290 287 301 316 324 321 309 295 282 269 266 263 254 253 258 259 259 255 247 251 256 251 244 237 235 227 211 196 201 201 202 215 225 224 224 212 196 202 209 210 217 224 223 214 211 221 291 349 205 196 154 174 202 195 221 236 189 193 181 187 228 226 223 254 261 258 253 249 248 246 247 250 254 255 255 258 257 248 239 237 237
330 317 311 317 318 320 318 303 281 288 303 315 322 312 294 283 268 262 262 253 252 258 258 260 252 240 258 266 251 243 232 231 228 211 201 210 197 190 202 205 209 211 203 190 196 203 205 210 218 214 192 187 186 143 165 195 273 198 205 214 202 209 222 203 205 197 198 201 213 222 251 283 271 251 253 250 242 242 244 251 253 252 255 257 253 246 241 243
330 323 309 305 309 315 321 313 283 278 293 304 317 313 293 278 264 256 257 254 250 253 253 250 239 228 246 259 237 225 225 230 232 220 216 215 189 193 209 198 200 205 204 199 197 196 198 201 212 222 191 164 169 146 169 193 201 213 215 217 214 210 207 193 200 207 199 201 233 229 239 261 263 263 264 258 247 240 238 247 251 250 255 258 257 255 251 248
329 326 318 306 301 304 318 319 293 271 285 298 311 311 294 276 263 249 244 245 243 250 254 237 209 204 248 256 238 230 227 229 231 223 222 220 199 207 228 205 196 199 199 199 189 179 185 189 195 214 193 167 167 167 198 205 197 200 199 209 217 210 216 209 199 211 195 209 245 243 248 257 262 268 265 261 253 242 237 246 252 252 254 261 264 265 263 257
329 326 324 318 310 302 307 315 300 269 278 292 305 309 299 285 269 250 235 221 208 189 242 225 195 180 306 317 230 234 234 224 226 221 219 221 214 214 227 214 197 188 178 174 190 179 165 161 195 213 207 195 185 191 205 203 193 204 206 209 207 208 228 213 199 221 211 239 256 249 256 264 268 271 269 264 259 253 245 245 252 253 250 259 268 273 275 268
331 327 324 323 320 310 298 302 299 266 271 290 305 312 295 268 263 252 230 223 222 218 234 238 205 205 249 1 356 253 234 217 221 218 213 218 218 216 220 212 195 182 170 165 182 180 169 172 216 219 217 204 193 206 214 185 166 208 217 222 203 210 230 204 195 213 202 247 261 255 259 267 271 273 279 275 270 264 258 252 253 254 252 256 265 273 278 275
331 327 325 323 321 319 308 304 301 254 264 289 301 305 274 210 76 300 240 244 243 236 238 245 228 224 240 269 298 313 288 223 220 212 203 210 211 211 211 193 171 180 189 172 152 164 175 199 224 224 229 220 177 210 221 232 216 183 196 218 213 215 227 198 188 194 125 214 265 294 282 273 274 274 282 287 285 275 270 265 261 260 258 259 265 271 275 276
329 327 328 323 320 323 318 312 301 251 275 291 289 284 262 245 264 279 276 275 269 251 240 237 237 239 241 261 280 288 315 289 227 213 197 197 201 200 187 170 167 172 176 160 154 176 187 222 233 226 226 232 225 209 211 227 228 185 165 209 226 213 226 243 220 229 97 165 267 325 303 281 280 276 272 272 266 268 274 272 270 272 270 269 271 274 276 277
329 329 331 327 322 320 318 317 161 248 287 285 287 282 271 260 257 270 279 283 282 267 242 232 231 234 235 245 259 254 275 297 238 221 204 194 194 193 178 162 174 168 169 178 175 187 201 233 233 190 147 196 228 191 178 225 237 218 184 200 229 195 187 238 230 232 212 193 236 313 305 285 282 279 271 262 253 257 268 270 271 273 274 274 275 275 276 276
332 331 332 332 327 319 319 333 150 207 272 273 310 294 281 273 254 267 270 261 292 280 252 236 227 229 231 235 238 226 239 245 237 223 208 196 187 187 184 169 160 171 195 197 195 212 229 250 143 151 167 181 198 186 177 207 237 236 217 208 222 196 201 234 250 298 270 200 187 245 292 276 267 272 274 266 250 242 252 260 264 264 265 269 272 274 275 274
329 328 328 331 329 321 326 127 154 203 274 353 355 315 287 280 251 242 246 301 308 311 291 234 222 231 229 227 217 194 222 244 238 226 208 199 188 175 188 177 160 200 204 182 193 231 246 263 128 152 173 163 180 209 192 189 220 243 230 219 220 200 217 242 287 7 320 251 196 138 270 272 247 249 260 264 259 247 241 244 252 257 259 261 265 269 272 273
328 327 324 324 325 321 332 133 168 184 112 71 5 333 285 266 230 197 150 44 335 313 339 190 205 219 210 211 197 172 181 268 241 227 209 205 195 167 168 181 169 203 184 153 199 242 240 240 203 153 163 173 187 214 196 175 205 246 211 201 216 209 226 236 198 154 231 254 251 140 230 268 250 235 245 246 257 258 248 240 246 253 257 258 260 265 269 269
324 323 317 315 321 319 300 165 163 104 73 31 357 354 260 209 165 170 136 34 354 316 332 183 198 197 194 203 184 163 115 230 199 206 200 205 201 176 153 176 170 183 147 124 217 242 164 183 187 142 141 189 203 222 197 169 191 241 148 160 196 207 221 221 185 205 228 254 337 143 207 268 265 249 237 216 246 257 249 245 248 247 250 253 256 259 261 262
322 321 313 310 317 297 263 182 130 69 49 350 345 356 210 174 163 162 98 52 305 316 326 233 250 213 199 189 182 168 108 129 117 177 192 198 197 182 171 186 155 161 153 153 207 246 98 157 177 161 159 199 214 224 191 165 199 250 144 160 193 201 216 215 195 217 231 229 252 211 155 255 264 253 205 199 241 254 248 243 246 243 244 248 252 255 257 259
331 331 316 308 306 260 217 147 106 38 354 335 346 176 158 144 158 139 78 79 276 322 338 307 279 227 198 173 186 184 111 115 80 129 162 183 190 175 150 186 154 161 169 180 208 228 70 124 142 157 179 213 227 225 176 179 223 268 145 135 78 117 120 193 208 219 208 213 236 219 176 221 265 255 179 202 236 249 253 244 239 241 242 247 252 255 258 260
348 341 326 308 295 212 156 115 99 14 326 332 6 141 149 154 138 63 44 3 326 316 325 328 344 287 190 166 190 215 108 70 97 112 108 149 182 169 118 137 132 130 149 238 232 254 27 349 5 125 176 225 227 214 160 196 203 54 63 37 18 28 46 44 19 191 199 222 232 222 194 202 257 255 176 205 226 234 244 241 241 243 241 246 250 254 256 256
3 346 336 320 163 150 132 106 128 132 332 345 107 141 142 129 78 75 57 310 11 313 326 326 334 318 186 165 169 206 166 35 100 111 65 55 151 144 108 127 115 79 41 311 279 26 7 329 317 218 237 333 342 70 13 227 149 84 76 136 344 320 21 40 52 102 221 235 230 224 204 201 239 250 175 214 228 225 231 230 237 239 237 242 247 250 253 253
10 354 1 112 127 132 128 111 118 105 341 113 132 151 130 31 34 70 272 316 359 321 334 289 301 313 182 151 126 166 135 22 71 98 84 56 50 87 101 144 146 85 222 218 225 41 17 272 239 238 268 256 102 85 360 5 79 106 121 135 179 232 219 202 202 194 232 244 237 210 200 205 238 252 249 252 248 239 248 242 236 234 238 244 249 251 253 253
22 33 78 111 118 122 120 104 90 58 66 122 131 129 74 63 34 295 288 321 344 304 307 296 313 340 135 120 104 133 94 56 38 72 79 101 61 6 19 65 116 88 207 174 123 45 355 279 232 230 252 202 152 124 198 254 149 160 152 163 186 207 223 221 222 231 238 248 252 170 175 213 260 249 238 245 246 238 244 248 245 244 244 246 249 253 255 255
40 71 94 108 110 110 113 99 74 65 66 91 107 41 58 71 314 301 310 293 284 293 303 305 325 6 66 88 66 56 74 54 88 82 56 72 86 6 348 61 118 100 93 119 107 166 190 287 224 192 209 182 168 179 173 145 173 189 158 166 190 205 226 222 217 231 245 268 275 163 161 199 233 220 212 235 248 240 242 247 248 250 254 259 264 267 268 268
57 83 95 103 99 93 100 78 59 57 41 33 66 62 61 55 284 311 342 305 295 306 310 326 8 40 49 43 7 4 47 56 97 83 49 79 107 181 216 118 134 115 108 129 166 157 183 262 251 230 204 159 172 194 159 119 238 240 139 130 210 225 228 258 264 202 218 312 294 204 214 218 243 300 271 258 282 222 243 254 257 262 271 285 295 292 286 284
66 88 91 92 87 80 71 56 50 31 8 26 72 62 51 358 279 268 340 320 312 309 316 344 24 48 42 30 11 1 21 52 138 83 31 69 93 6 359 21 305 157 126 146 184 98 129 266 286 300 255 176 179 189 167 164 202 196 121 170 228 99 140 255 272 227 218 273 247 204 252 269 276 289 282 269 266 228 267 290 324 32 35 22 11 9 357 340
67 79 77 76 78 75 58 47 43 14 0 32 86 75 242 270 303 265 318 316 293 295 336 12 17 30 32 35 22 353 357 8 22 72 54 16 50 8 355 348 315 181 134 113 197 174 147 271 290 291 230 255 254 157 192 209 144 122 180 205 128 43 79 164 260 245 230 252 235 220 243 250 241 264 301 302 287 322 20 28 60 68 66 62 54 50 48 49
65 70 67 64 67 65 50 32 19 8 4 42 79 81 199 309 327 319 332 326 293 340 28 43 20 24 38 45 15 352 2 13 357 43 94 45 15 7 21 359 344 19 120 113 61 247 131 297 293 279 213 283 12 94 241 316 72 123 184 172 111 63 228 173 213 242 243 258 263 228 235 233 211 238 283 286 289 323 60 72 55 56 55 55 54 48 41 40
35 57 56 52 61 60 48 27 10 13 31 57 64 67 230 296 305 339 355 347 320 34 29 29 29 44 41 38 354 355 22 50 359 12 63 50 328 355 28 28 339 356 55 136 134 289 90 112 289 308 275 293 24 61 220 260 17 73 33 25 80 199 196 184 202 232 241 256 273 242 220 236 216 216 242 254 278 344 99 96 79 83 63 48 42 34 25 17
24 53 46 47 68 62 45 35 28 38 60 77 86 63 310 304 311 351 9 12 18 41 37 11 20 39 22 8 30 25 26 37 32 25 22 27 37 356 1 347 318 348 3 114 124 19 55 117 250 304 327 15 51 200 193 191 196 207 270 272 276 242 222 279 245 211 191 214 255 254 241 254 255 233 224 182 89 65 82 91 82 62 50 30 12 1 352 348
70 65 34 42 60 43 36 39 36 51 78 68 62 5 337 3 343 353 10 25 42 43 47 62 51 47 17 9 27 28 28 31 33 52 54 21 34 19 339 345 316 339 13 51 46 45 104 154 177 282 336 359 235 229 191 175 177 173 202 217 218 218 236 296 268 215 179 182 219 249 257 256 268 350 66 93 94 54 32 61 330 345 347 335 328 326 324 324
71 57 25 41 36 15 34 42 13 36 87 74 340 323 344 10 8 355 7 22 34 29 32 48 58 40 34 33 12 14 57 45 21 44 49 17 52 58 323 335 346 355 61 76 331 342 127 114 108 245 244 238 255 251 152 178 182 153 175 195 173 164 143 209 254 259 278 281 274 278 272 258 282 8 81 94 50 3 349 305 280 297 305 308 311 313 313 315
58 52 42 40 21 15 53 49 3 15 31 288 282 331 358 13 19 10 9 17 20 14 24 28 23 34 28 7 17 27 46 44 25 46 57 21 28 360 326 340 353 2 64 82 302 314 79 86 81 290 297 305 300 319 39 37 78 114 295 295 142 145 164 191 224 313 301 273 278 282 269 249 283 315 140 53 332 314 294 280 270 278 286 290 298 306 310 312
55 51 49 39 23 33 73 62 22 21 329 330 10 10 13 42 34 24 14 10 8 15 49 19 360 12 349 359 59 30 11 51 32 21 60 73 13 9 25 23 6 9 58 101 267 269 123 115 98 26 345 337 337 348 355 355 28 113 256 295 163 181 293 292 291 310 260 240 243 254 264 253 272 319 313 321 324 314 302 294 280 275 282 286 288 293 299 304
52 49 46 41 41 60 74 74 97 93 1 6 19 2 10 29 31 36 32 6 5 23 75 353 347 11 360 25 58 5 345 81 59 355 25 18 324 12 20 4 353 360 351 329 359 75 136 152 106 105 139 238 267 290 271 299 334 292 260 315 324 218 232 22 328 268 253 247 241 239 266 276 280 292 289 293 303 299 294 294 292 288 289 292 294 294 295 300
61 49 23 34 48 59 62 52 59 84 69 37 17 4 27 14 347 14 26 19 11 18 39 9 1 29 29 30 43 9 351 24 43 48 39 355 316 342 354 353 7 9 349 341 5 51 92 48 133 158 187 215 215 221 224 85 337 286 290 295 291 258 211 160 286 255 252 275 268 252 263 276 277 278 277 278 279 278 280 286 287 289 292 296 300 301 301 303
72 63 329 32 36 41 45 33 29 33 23 54 76 357 21 7 336 5 19 13 3 14 44 48 29 40 31 19 43 24 344 356 20 37 34 352 308 315 342 2 28 20 11 3 358 58 91 12 272 199 220 240 240 247 268 29 277 267 286 287 281 273 244 229 240 242 242 263 265 254 251 258 266 276 283 284 277 271 273 279 284 290 295 298 299 302 304 306
77 115 104 96 47 14 49 8 4 18 29 30 60 35 26 31 18 9 356 345 355 15 38 36 28 31 7 352 49 48 6 11 14 6 6 357 335 328 348 8 34 25 27 22 3 68 114 267 247 205 250 258 257 273 308 345 280 267 266 270 273 267 247 236 238 238 231 232 248 256 255 254 261 274 281 281 280 278 280 287 294 299 300 300 301 302 303 304
89 105 89 88 116 181 181 335 353 51 47 21 38 44 38 45 26 346 313 334 356 20 37 36 3 359 353 349 26 86 35 22 360 354 38 359 328 326 349 322 344 26 32 25 352 40 109 243 247 224 267 275 275 295 338 324 265 270 260 253 254 253 245 241 245 248 243 241 254 267 271 269 266 266 271 277 285 293 298 300 300 299 297 297 298 299 299 299
86 90 55 71 66 5 359 4 24 70 45 12 30 35 28 46 24 336 323 344 330 348 30 46 351 338 358 22 39 83 54 20 356 355 27 355 325 335 351 279 273 5 14 20 344 8 67 253 312 20 296 298 314 357 350 259 244 262 265 254 247 250 250 248 253 259 264 264 262 265 272 275 270 267 272 281 288 295 298 296 294 293 295 297 300 304 307 309
77 81 70 86 46 353 355 16 34 68 54 22 22 12 20 43 15 337 336 43 78 61 23 4 329 322 22 50 60 81 19 347 304 290 295 276 274 286 289 277 308 347 352 347 304 358 52 278 354 31 325 310 45 88 296 298 278 270 266 260 254 254 256 256 251 243 245 255 262 266 268 269 273 278 282 289 296 300 300 300 303 309 316 325 335 341 339 336
61 68 69 90 60 3 3 19 24 43 85 38 13 357 18 25 5 359 5 90 83 60 21 355 333 326 37 57 57 13 328 314 295 291 286 268 262 262 259 260 264 266 268 263 274 253 161 224 316 15 307 311 81 128 327 337 307 281 262 252 250 247 248 252 250 244 240 239 251 262 259 269 297 320 330 326 330 330 319 322 339 354 354 354 1 4 358 351
Height
1516 1515 1513 1512 1511 1510 1509 1508 1507 1506 1505 1505 1504 1504 1503 1503 1502 1502 1502 1502 1502 1502 1503 1503 1504 1504 1504 1505 1505 1505 1505 1504 1504 1504 1501 1501 1505 1508 1510 1511 1512 1513 1513 1515 1516 1517 1519 1520 1522 1523 1525 1527 1528 1527 1527 1530 1530 1532 1535 1539 1539 1537 1533 1528 1525 1523 1521 1519 1515 1513 1513 1513 1512 1511 1511 1511 1511 1510 1511 1511 1511 1511 1511 1512 1513 1513 1514 1515
1515 1514 1512 1511 1510 1508 1507 1506 1505 1505 1504 1503 1502 1502 1502 1501 1501 1501 1500 1500 1501 1501 1501 1502 1502 1503 1503 1503 1503 1504 1504 1503 1502 1498 1496 1501 1504 1505 1507 1509 1511 1512 1512 1514 1515 1516 1518 1519 1521 1522 1524 1526 1526 1526 1526 1528 1530 1531 1534 1537 1535 1531 1527 1523 1523 1522 1520 1520 1517 1514 1514 1513 1512 1511 1511 1511 1511 1511 1511 1511 1511 1511 1511 1512 1512 1513 1513 1514
1515 1513 1511 1510 1509 1507 1506 1505 1504 1503 1502 1502 1501 1500 1500 1499 1499 1499 1499 1499 1499 1499 1500 1500 1501 1501 1502 1502 1502 1503 1502 1502 1499 1493 1494 1501 1502 1503 1505 1507 1510 1511 1512 1513 1514 1515 1517 1519 1520 1521 1522 1523 1524 1525 1526 1527 1529 1529 1532 1535 1531 1526 1523 1521 1521 1520 1519 1519 1516 1515 1514 1513 1511 1510 1510 1511 1511 1511 1511 1511 1511 1511 1511 1511 1512 1512 1513 1514
1514 1512 1510 1509 1508 1506 1505 1504 1503 1502 1501 1500 1499 1499 1498 1498 1498 1497 1497 1497 1497 1498 1498 1499 1499 1500 1501 1501 1502 1501 1502 1501 1495 1490 1494 1498 1499 1501 1503 1505 1508 1510 1511 1512 1513 1514 1516 1518 1519 1519 1520 1522 1522 1523 1524 1525 1527 1528 1528 1530 1525 1523 1523 1520 1519 1519 1518 1518 1516 1515 1514 1512 1511 1510 1510 1509 1511 1512 1510 1509 1509 1509 1509 1510 1511 1512 1512 1513
1513 1512 1510 1508 1506 1505 1504 1503 1501 1500 1499 1499 1498 1497 1497 1496 1496 1496 1496 1496 1496 1496 1496 1497 1498 1498 1499 1500 1501 1500 1503 1502 1492 1488 1492 1494 1497 1500 1501 1503 1505 1507 1510 1511 1512 1512 1514 1516 1517 1518 1519 1520 1521 1522 1522 1522 1525 1526 1524 1523 1521 1522 1522 1518 1518 1518 1517 1517 1516 1515 1513 1512 1511 1510 1509 1509 1510 1510 1508 1508 1508 1508 1509 1509 1510 1511 1511 1512
1513 1511 1509 1507 1505 1504 1502 1501 1500 1499 1498 1497 1496 1496 1495 1495 1494 1494 1494 1494 1494 1494 1495 1496 1496 1497 1497 1498 1499 1499 1501 1498 1489 1488 1490 1492 1495 1497 1499 1501 1503 1505 1507 1509 1510 1511 1512 1514 1515 1516 1516 1517 1518 1519 1520 1520 1522 1524 1522 1519 1519 1521 1520 1518 1518 1518 1517 1517 1516 1514 1512 1511 1510 1509 1509 1508 1508 1508 1508 1508 1508 1508 1508 1508 1509 1510 1510 1511
1512 1510 1508 1507 1505 1503 1501 1500 1499 1498 1496 1495 1495 1494 1494 1493 1493 1493 1492 1493 1493 1493 1493 1494 1495 1495 1496 1497 1497 1498 1497 1491 1488 1489 1489 1490 1493 1495 1497 1498 1500 1502 1504 1506 1507 1508 1510 1512 1512 1513 1514 1515 1516 1516 1517 1518 1519 1521 1520 1518 1517 1518 1518 1518 1518 1517 1516 1516 1515 1515 1513 1510 1510 1509 1508 1507 1507 1507 1507 1507 1508 1508 1508 1508 1508 1508 1509 1509
1511 1509 1507 1506 1504 1502 1500 1499 1498 1496 1495 1494 1493 1492 1492 1491 1491 1491 1491 1491 1491 1491 1492 1492 1493 1493 1494 1495 1495 1496 1492 1487 1488 1490 1489 1489 1491 1493 1495 1495 1497 1499 1501 1503 1505 1507 1508 1509 1510 1511 1512 1512 1512 1513 1514 1517 1518 1518 1517 1516 1516 1516 1516 1517 1518 1516 1515 1514 1514 1514 1513 1510 1509 1509 1507 1505 1506 1506 1507 1507 1507 1507 1507 1507 1507 1507 1508 1509
1509 1508 1506 1504 1503 1501 1500 1498 1496 1495 1494 1493 1492 1491 1490 1490 1490 1490 1490 1490 1490 1490 1490 1491 1491 1492 1493 1493 1494 1492 1486 1485 1489 1490 1489 1489 1490 1492 1494 1494 1495 1496 1499 1501 1503 1505 1506 1507 1507 1508 1509 1509 1510 1510 1511 1515 1516 1514 1514 1515 1514 1514 1514 1516 1516 1515 1515 1514 1513 1513 1512 1509 1508 1508 1506 1504 1505 1505 1505 1506 1506 1506 1507 1506 1506 1507 1507 1508
1508 1506 1504 1503 1501 1500 1499 1497 1495 1493 1492 1491 1490 1489 1489 1488 1488 1488 1488 1488 1488 1488 1488 1489 1489 1490 1491 1491 1492 1489 1483 1486 1490 1489 1489 1489 1490 1492 1493 1494 1494 1495 1497 1499 1501 1502 1503 1505 1506 1507 1508 1508 1508 1508 1509 1512 1512 1511 1512 1513 1512 1512 1513 1514 1515 1514 1514 1513 1512 1513 1510 1507 1506 1507 1504 1502 1504 1504 1504 1505 1505 1506 1506 1506 1506 1506 1506 1506
1506 1504 1503 1501 1499 1498 1497 1496 1494 1492 1491 1490 1489 1488 1487 1487 1486 1486 1486 1487 1487 1487 1487 1487 1488 1489 1489 1489 1489 1485 1483 1487 1488 1488 1489 1488 1490 1491 1492 1493 1494 1494 1496 1497 1498 1499 1502 1504 1505 1507 1507 1506 1506 1507 1507 1508 1509 1509 1511 1512 1512 1512 1512 1512 1512 1513 1513 1512 1510 1511 1508 1505 1505 1505 1502 1501 1503 1504 1504 1504 1505 1505 1504 1505 1505 1505 1505 1505
1504 1503 1501 1499 1497 1496 1495 1494 1493 1491 1490 1488 1487 1486 1486 1485 1485 1485 1485 1485 1485 1486 1486 1486 1487 1487 1488 1487 1484 1481 1484 1486 1487 1487 1487 1487 1489 1490 1491 1493 1493 1494 1494 1495 1496 1498 1501 1503 1503 1505 1505 1505 1505 1507 1507 1506 1508 1509 1510 1513 1513 1512 1510 1508 1509 1511 1512 1512 1509 1510 1510 1506 1504 1502 1499 1500 1503 1503 1503 1503 1503 1503 1503 1504 1504 1504 1504 1504
1502 1501 1500 1498 1496 1494 1493 1492 1491 1490 1488 1487 1486 1485 1484 1484 1484 1484 1483 1484 1484 1484 1484 1485 1485 1485 1487 1484 1480 1481 1484 1485 1486 1486 1486 1487 1488 1489 1490 1492 1492 1493 1493 1494 1496 1497 1500 1501 1502 1504 1504 1504 1504 1506 1505 1505 1507 1508 1509 1512 1514 1515 1510 1505 1506 1509 1511 1511 1509 1512 1514 1507 1502 1499 1498 1500 1502 1502 1502 1502 1501 1501 1501 1502 1502 1503 1503 1503
1500 1499 1498 1496 1494 1493 1491 1490 1490 1488 1487 1486 1484 1483 1483 1482 1482 1482 1482 1482 1483 1483 1483 1483 1483 1484 1485 1481 1479 1481 1483 1484 1484 1484 1485 1486 1487 1488 1489 1491 1492 1492 1492 1493 1496 1497 1499 1500 1501 1503 1504 1504 1503 1504 1505 1505 1505 1507 1509 1511 1514 1517 1509 1502 1504 1507 1509 1510 1508 1511 1513 1506 1500 1498 1497 1499 1500 1500 1500 1499 1500 1499 1499 1500 1501 1501 1501 1501
1498 1497 1496 1495 1493 1491 1489 1489 1488 1487 1486 1485 1483 1482 1481 1481 1481 1481 1481 1481 1481 1482 1482 1482 1482 1484 1483 1479 1478 1480 1482 1483 1483 1483 1485 1486 1486 1488 1488 1490 1491 1491 1491 1492 1495 1496 1498 1499 1500 1501 1502 1503 1504 1505 1507 1506 1504 1504 1510 1513 1513 1514 1509 1502 1502 1504 1506 1507 1506 1510 1511 1504 1499 1496 1496 1498 1499 1499 1498 1497 1498 1498 1497 1498 1499 1499 1499 1499
1497 1495 1494 1493 1491 1490 1488 1487 1486 1486 1485 1483 1482 1481 1480 1480 1479 1479 1480 1480 1480 1480 1481 1482 1481 1483 1483 1479 1477 1479 1480 1481 1481 1483 1485 1485 1486 1487 1488 1489 1490 1490 1490 1491 1493 1495 1496 1498 1499 1500 1500 1502 1505 1505 1507 1509 1508 1505 1506 1508 1510 1512 1510 1506 1502 1501 1503 1505 1505 1508 1509 1503 1497 1495 1494 1496 1497 1497 1496 1494 1495 1495 1495 1496 1497 1497 1498 1498
1497 1494 1492 1491 1489 1488 1486 1485 1484 1484 1483 1482 1480 1479 1479 1478 1478 1478 1478 1479 1479 1479 1480 1481 1481 1483 1480 1476 1476 1477 1478 1479 1480 1482 1484 1485 1486 1486 1487 1488 1488 1489 1489 1491 1492 1493 1495 1497 1498 1499 1499 1500 1503 1505 1509 1511 1510 1506 1503 1504 1505 1507 1510 1508 1504 1500 1501 1504 1504 1505 1505 1501 1496 1494 1494 1494 1495 1494 1494 1492 1492 1493 1494 1494 1494 1495 1496 1496
1496 1493 1490 1488 1487 1486 1485 1483 1482 1482 1482 1481 1479 1478 1477 1477 1477 1477 1477 1478 1478 1479 1480 1480 1480 1483 1478 1474 1475 1477 1477 1478 1479 1481 1483 1484 1485 1486 1487 1487 1487 1488 1489 1491 1492 1493 1494 1496 1497 1498 1498 1500 1501 1503 1506 1503 1501 1502 1503 1504 1504 1505 1507 1508 1505 1501 1500 1503 1503 1503 1502 1498 1495 1493 1493 1493 1493 1492 1491 1491 1490 1491 1492 1492 1492 1493 1493 1494
1494 1492 1489 1486 1485 1483 1483 1481 1480 1480 1480 1479 1478 1477 1476 1476 1476 1476 1476 1477 1477 1478 1478 1477 1477 1479 1476 1473 1474 1476 1477 1478 1478 1479 1481 1482 1484 1485 1486 1487 1487 1488 1489 1491 1492 1492 1493 1495 1496 1496 1495 1497 1497 1496 1494 1493 1494 1497 1498 1500 1503 1505 1505 1504 1503 1499 1499 1502 1502 1502 1501 1497 1494 1493 1491 1492 1492 1491 1490 1489 1489 1490 1490 1491 1491 1490 1491 1490
1492 1490 1487 1485 1483 1481 1480 1479 1478 1478 1478 1478 1477 1477 1476 1475 1475 1475 1475 1475 1474 1474 1474 1473 1473 1473 1473 1473 1474 1475 1476 1477 1477 1478 1479 1481 1483 1484 1486 1486 1487 1488 1488 1490 1491 1491 1493 1495 1496 1492 1489 1491 1493 1492 1491 1493 1495 1496 1497 1500 1502 1504 1503 1501 1500 1497 1497 1501 1500 1499 1500 1498 1495 1493 1491 1491 1491 1490 1490 1489 1487 1487 1488 1488 1489 1488 1488 1488
1490 1489 1486 1483 1482 1480 1478 1477 1476 1477 1477 1477 1476 1476 1475 1475 1475 1475 1474 1473 1472 1472 1472 1472 1473 1473 1473 1474 1474 1475 1476 1476 1476 1477 1478 1480 1481 1484 1486 1486 1487 1488 1488 1489 1490 1491 1493 1495 1493 1488 1487 1489 1492 1493 1494 1496 1496 1497 1499 1501 1502 1502 1501 1499 1499 1497 1497 1500 1500 1498 1500 1499 1496 1494 1492 1491 1490 1489 1489 1488 1487 1485 1485 1485 1486 1486 1487 1487
1488 1487 1485 1482 1480 1478 1477 1476 1475 1476 1476 1476 1475 1475 1475 1475 1475 1474 1474 1472 1470 1470 1471 1471 1473 1473 1473 1474 1474 1475 1476 1475 1476 1476 1477 1479 1480 1482 1484 1485 1487 1488 1488 1489 1491 1492 1494 1493 1488 1486 1489 1491 1492 1492 1494 1496 1497 1499 1501 1502 1504 1502 1501 1500 1498 1497 1498 1501 1501 1500 1502 1499 1495 1493 1491 1489 1489 1488 1487 1487 1486 1485 1484 1483 1483 1484 1485 1485
1486 1484 1483 1481 1479 1477 1476 1475 1474 1475 1475 1475 1475 1475 1475 1474 1474 1474 1474 1473 1470 1468 1469 1469 1471 1471 1472 1473 1473 1475 1475 1475 1475 1475 1476 1478 1479 1481 1483 1485 1487 1488 1488 1489 1490 1492 1494 1491 1486 1488 1490 1491 1493 1493 1494 1496 1497 1499 1501 1503 1504 1501 1503 1504 1500 1499 1500 1501 1502 1503 1503 1499 1493 1491 1487 1486 1485 1485 1484 1483 1484 1484 1483 1482 1482 1483 1483 1483
1484 1482 1481 1479 1477 1476 1474 1474 1474 1475 1474 1474 1475 1474 1474 1474 1474 1474 1474 1473 1470 1468 1467 1468 1469 1469 1470 1471 1473 1474 1475 1475 1475 1474 1476 1477 1478 1480 1482 1483 1486 1489 1489 1489 1490 1491 1490 1487 1485 1488 1490 1491 1495 1495 1495 1498 1499 1498 1499 1502 1501 1501 1502 1502 1501 1500 1499 1501 1501 1503 1506 1497 1491 1492 1486 1482 1482 1481 1482 1481 1480 1481 1481 1482 1481 1481 1481 1481
1483 1481 1479 1478 1476 1474 1473 1473 1474 1474 1474 1474 1474 1474 1473 1473 1473 1473 1473 1473 1471 1468 1466 1467 1468 1468 1469 1470 1472 1473 1474 1474 1474 1474 1475 1476 1478 1479 1481 1483 1486 1488 1488 1489 1491 1492 1489 1486 1486 1488 1490 1492 1495 1496 1495 1497 1500 1500 1497 1497 1498 1500 1501 1500 1503 1504 1505 1506 1499 1502 1511 1497 1485 1489 1484 1479 1480 1478 1478 1478 1477 1478 1478 1480 1479 1478 1479 1478
1481 1480 1478 1476 1475 1474 1473 1473 1473 1474 1474 1474 1474 1473 1473 1472 1473 1472 1474 1476 1473 1469 1467 1467 1468 1468 1467 1468 1470 1472 1475 1473 1471 1473 1474 1476 1477 1478 1480 1483 1484 1486 1487 1489 1492 1491 1487 1485 1486 1489 1491 1492 1493 1495 1494 1495 1500 1501 1494 1492 1495 1498 1500 1501 1504 1509 1510 1508 1498 1499 1510 1499 1483 1483 1480 1478 1479 1474 1475 1475 1474 1475 1476 1476 1477 1477 1477 1477
1480 1478 1476 1475 1474 1473 1473 1472 1473 1473 1473 1473 1473 1473 1472 1472 1473 1472 1474 1476 1474 1471 1470 1468 1468 1467 1466 1466 1468 1471 1476 1472 1470 1473 1474 1475 1477 1477 1480 1482 1482 1484 1484 1489 1493 1488 1484 1485 1487 1489 1491 1493 1494 1494 1492 1492 1499 1498 1489 1489 1493 1495 1498 1499 1503 1508 1504 1502 1501 1499 1504 1502 1489 1478 1475 1478 1478 1473 1473 1473 1472 1473 1473 1473 1474 1474 1474 1474
1478 1476 1474 1473 1473 1473 1472 1472 1473 1473 1473 1474 1472 1472 1472 1473 1473 1473 1474 1475 1474 1472 1471 1468 1467 1467 1466 1467 1467 1469 1471 1469 1470 1474 1474 1475 1477 1478 1480 1481 1482 1483 1482 1487 1491 1485 1482 1485 1487 1488 1491 1493 1492 1490 1489 1491 1495 1493 1488 1489 1491 1492 1495 1496 1500 1504 1501 1503 1506 1501 1502 1505 1489 1473 1474 1477 1475 1472 1470 1471 1471 1471 1471 1471 1470 1470 1470 1470
1476 1474 1473 1472 1472 1472 1472 1473 1473 1473 1473 1473 1472 1472 1472 1472 1473 1473 1474 1475 1475 1473 1470 1469 1468 1467 1466 1467 1468 1468 1468 1468 1470 1473 1474 1475 1477 1478 1480 1481 1482 1483 1482 1484 1486 1484 1484 1486 1486 1487 1490 1491 1488 1487 1488 1490 1492 1490 1488 1489 1491 1492 1496 1498 1500 1502 1503 1505 1504 1498 1500 1503 1485 1468 1475 1478 1473 1470 1467 1467 1469 1467 1468 1468 1468 1468 1467 1467
1475 1472 1471 1470 1470 1471 1472 1473 1473 1473 1473 1472 1472 1472 1472 1473 1473 1473 1475 1476 1476 1474 1470 1469 1468 1467 1467 1468 1469 1469 1468 1469 1470 1472 1474 1476 1477 1478 1479 1481 1482 1483 1483 1484 1485 1486 1485 1485 1486 1486 1488 1487 1486 1487 1488 1488 1489 1489 1490 1492 1494 1497 1499 1502 1504 1505 1506 1500 1494 1489 1491 1498 1487 1467 1470 1474 1469 1466 1464 1466 1466 1464 1466 1465 1464 1465 1464 1464
1474 1471 1469 1469 1470 1471 1473 1474 1474 1473 1473 1472 1472 1471 1472 1473 1472 1475 1478 1477 1477 1474 1470 1469 1468 1468 1468 1467 1470 1470 1469 1471 1471 1472 1476 1477 1478 1479 1479 1481 1484 1485 1486 1486 1486 1487 1487 1487 1487 1486 1486 1486 1486 1487 1488 1488 1488 1489 1494 1496 1498 1501 1501 1504 1507 1508 1507 1495 1485 1484 1485 1495 1490 1470 1465 1466 1462 1461 1463 1463 1463 1462 1462 1461 1461 1461 1460 1461
1474 1471 1469 1469 1471 1472 1473 1474 1474 1474 1473 1473 1472 1473 1473 1473 1476 1482 1482 1477 1476 1475 1472 1471 1470 1469 1468 1467 1470 1471 1471 1472 1472 1473 1477 1479 1481 1480 1480 1481 1484 1486 1488 1487 1488 1489 1489 1488 1486 1486 1486 1486 1487 1489 1490 1491 1490 1492 1496 1499 1503 1504 1501 1503 1503 1502 1500 1490 1482 1482 1485 1491 1485 1469 1464 1462 1460 1462 1462 1460 1459 1458 1458 1458 1458 1457 1457 1458
1475 1472 1470 1471 1473 1474 1475 1475 1475 1474 1474 1473 1474 1474 1474 1477 1483 1487 1485 1479 1477 1476 1472 1471 1470 1469 1469 1469 1472 1472 1472 1474 1474 1474 1477 1479 1481 1481 1481 1482 1483 1486 1487 1487 1490 1491 1490 1487 1486 1487 1486 1484 1487 1490 1492 1493 1493 1494 1496 1498 1502 1503 1501 1501 1499 1496 1494 1487 1480 1481 1486 1489 1479 1464 1459 1455 1456 1459 1457 1455 1455 1455 1455 1454 1454 1455 1455 1455
1477 1474 1474 1474 1475 1476 1476 1476 1476 1475 1475 1475 1475 1475 1476 1482 1487 1487 1484 1482 1479 1475 1472 1471 1470 1469 1469 1472 1474 1473 1474 1476 1475 1476 1478 1479 1482 1482 1482 1482 1483 1485 1486 1487 1490 1491 1491 1489 1484 1484 1483 1481 1484 1486 1487 1490 1492 1493 1493 1495 1499 1498 1497 1497 1493 1493 1492 1484 1481 1484 1487 1486 1472 1459 1453 1450 1451 1453 1452 1451 1453 1453 1453 1453 1454 1455 1454 1453
1480 1478 1477 1477 1477 1477 1477 1477 1477 1476 1476 1476 1476 1478 1482 1487 1489 1487 1486 1483 1480 1477 1474 1471 1471 1471 1472 1474 1475 1474 1475 1477 1477 1478 1479 1480 1483 1483 1482 1483 1484 1484 1485 1487 1488 1490 1493 1489 1479 1477 1478 1477 1480 1481 1482 1487 1491 1493 1492 1495 1498 1493 1490 1492 1491 1490 1490 1488 1487 1485 1482 1472 1460 1452 1450 1450 1451 1451 1450 1450 1452 1453 1453 1454 1454 1453 1452 1452
1482 1480 1479 1479 1479 1479 1478 1478 1478 1477 1478 1476 1477 1484 1489 1490 1489 1488 1486 1483 1481 1480 1476 1472 1472 1473 1476 1478 1478 1476 1476 1477 1478 1479 1480 1482 1484 1484 1484 1485 1485 1484 1484 1486 1487 1490 1493 1488 1480 1478 1478 1477 1478 1479 1480 1483 1487 1492 1495 1494 1493 1489 1488 1493 1492 1487 1491 1494 1487 1479 1476 1468 1460 1455 1450 1448 1449 1449 1451 1451 1452 1454 1453 1453 1453 1451 1451 1450
1484 1482 1481 1481 1480 1480 1480 1479 1479 1478 1478 1476 1479 1489 1493 1490 1487 1487 1485 1482 1482 1481 1478 1476 1476 1478 1481 1481 1481 1480 1478 1478 1479 1480 1482 1483 1485 1487 1486 1486 1484 1484 1484 1485 1486 1488 1490 1487 1481 1478 1478 1478 1479 1479 1479 1480 1481 1489 1494 1490 1488 1491 1492 1496 1495 1488 1491 1492 1480 1471 1472 1470 1468 1462 1451 1448 1450 1450 1452 1452 1451 1453 1452 1452 1452 1451 1451 1450
1485 1483 1483 1482 1481 1481 1481 1480 1480 1479 1479 1479 1482 1490 1493 1490 1487 1486 1485 1482 1482 1480 1479 1481 1481 1481 1483 1483 1484 1482 1479 1480 1481 1481 1482 1485 1487 1488 1488 1487 1485 1484 1484 1485 1486 1488 1489 1488 1482 1478 1480 1479 1479 1481 1482 1481 1481 1484 1487 1485 1488 1493 1493 1496 1497 1491 1488 1489 1479 1470 1470 1469 1468 1462 1453 1450 1450 1451 1454 1454 1452 1452 1452 1452 1453 1452 1452 1451
1486 1485 1484 1484 1483 1483 1482 1481 1481 1480 1480 1484 1488 1491 1493 1491 1487 1486 1485 1483 1482 1481 1482 1484 1483 1482 1483 1484 1485 1483 1480 1482 1484 1482 1483 1486 1489 1489 1488 1488 1486 1485 1484 1485 1487 1488 1488 1490 1486 1480 1480 1481 1481 1484 1484 1482 1482 1483 1484 1486 1489 1490 1489 1490 1492 1486 1483 1487 1483 1475 1472 1467 1460 1454 1451 1451 1451 1452 1454 1454 1453 1454 1453 1453 1453 1453 1453 1452
1486 1486 1486 1486 1485 1484 1484 1482 1482 1481 1483 1489 1492 1492 1493 1491 1488 1487 1486 1484 1483 1483 1484 1485 1484 1484 1485 1485 1484 1484 1483 1484 1485 1485 1486 1488 1489 1489 1488 1488 1487 1486 1485 1484 1486 1488 1488 1492 1493 1485 1481 1483 1484 1484 1484 1482 1483 1484 1486 1487 1489 1489 1488 1488 1487 1483 1481 1484 1483 1479 1475 1464 1453 1450 1451 1452 1454 1455 1455 1454 1454 1455 1454 1454 1454 1453 1453 1452
1487 1487 1488 1487 1486 1486 1485 1484 1484 1485 1488 1492 1493 1493 1493 1491 1489 1488 1487 1485 1485 1485 1485 1486 1487 1487 1487 1486 1486 1486 1485 1486 1487 1488 1489 1490 1491 1491 1489 1489 1488 1488 1487 1486 1488 1489 1489 1492 1494 1489 1485 1484 1482 1482 1483 1482 1483 1484 1485 1486 1487 1487 1488 1490 1488 1483 1481 1482 1479 1478 1475 1462 1453 1455 1454 1454 1457 1457 1455 1456 1455 1454 1454 1454 1453 1453 1452 1452
1487 1489 1490 1489 1488 1487 1486 1486 1488 1488 1491 1493 1493 1493 1493 1491 1491 1490 1488 1487 1487 1486 1486 1487 1488 1489 1489 1488 1488 1487 1487 1488 1489 1490 1491 1491 1492 1492 1490 1489 1489 1489 1488 1490 1491 1490 1490 1491 1492 1490 1487 1483 1480 1480 1483 1484 1482 1483 1485 1485 1485 1486 1488 1492 1490 1483 1482 1483 1480 1481 1480 1467 1456 1458 1458 1456 1457 1456 1456 1456 1455 1453 1453 1453 1452 1451 1450 1450
1489 1491 1491 1490 1489 1488 1487 1489 1491 1492 1493 1494 1494 1494 1493 1493 1493 1492 1490 1489 1489 1489 1489 1489 1490 1490 1490 1489 1489 1488 1488 1490 1492 1491 1492 1492 1492 1492 1491 1490 1490 1489 1490 1491 1491 1490 1491 1492 1492 1490 1486 1482 1480 1481 1483 1484 1484 1484 1485 1484 1485 1486 1486 1488 1488 1484 1484 1484 1481 1483 1482 1468 1458 1457 1458 1456 1456 1455 1455 1455 1454 1452 1450 1451 1451 1449 1448 1447
1491 1492 1492 1491 1491 1489 1489 1493 1495 1495 1496 1495 1494 1494 1494 1494 1494 1493 1493 1492 1492 1492 1492 1492 1492 1491 1491 1491 1491 1492 1492 1492 1493 1494 1493 1493 1493 1492 1491 1491 1490 1490 1490 1491 1491 1491 1491 1493 1493 1492 1489 1485 1483 1483 1483 1483 1485 1486 1486 1486 1486 1485 1485 1486 1487 1488 1486 1481 1478 1481 1477 1464 1457 1456 1456 1455 1455 1454 1452 1451 1451 1450 1448 1448 1448 1447 1447 1445
1492 1492 1493 1493 1492 1491 1492 1496 1497 1497 1497 1496 1496 1496 1496 1495 1495 1495 1495 1494 1494 1494 1493 1494 1494 1493 1493 1493 1493 1495 1494 1492 1494 1495 1494 1494 1493 1492 1492 1492 1491 1491 1491 1491 1490 1490 1492 1494 1494 1495 1494 1489 1485 1486 1487 1487 1488 1487 1487 1487 1487 1486 1487 1488 1489 1492 1488 1477 1473 1477 1472 1461 1456 1456 1454 1454 1455 1454 1451 1449 1449 1448 1446 1445 1444 1444 1444 1444
1492 1494 1495 1494 1494 1493 1495 1496 1497 1497 1498 1498 1498 1498 1498 1498 1497 1496 1496 1495 1495 1494 1495 1495 1494 1494 1495 1494 1495 1496 1496 1495 1495 1495 1496 1496 1495 1494 1493 1492 1492 1492 1491 1491 1491 1491 1494 1496 1496 1495 1495 1492 1488 1489 1491 1491 1491 1489 1487 1487 1488 1489 1489 1490 1493 1493 1487 1480 1475 1473 1469 1464 1458 1454 1452 1452 1454 1453 1450 1449 1448 1447 1445 1444 1443 1443 1442 1442
1494 1496 1498 1497 1496 1496 1496 1497 1497 1498 1498 1499 1500 1500 1501 1501 1500 1498 1497 1496 1496 1496 1496 1497 1497 1497 1498 1497 1498 1499 1498 1498 1497 1497 1500 1500 1497 1496 1494 1492 1493 1493 1491 1492 1491 1492 1496 1497 1497 1496 1493 1491 1490 1490 1491 1493 1493 1492 1491 1489 1488 1489 1489 1491 1492 1487 1482 1485 1482 1471 1466 1467 1460 1453 1451 1450 1451 1452 1450 1448 1448 1447 1446 1444 1443 1442 1441 1441
1495 1498 1499 1499 1499 1499 1499 1499 1499 1499 1499 1499 1501 1502 1502 1504 1504 1503 1501 1498 1497 1497 1497 1499 1500 1501 1501 1499 1499 1500 1500 1500 1500 1501 1502 1502 1500 1498 1495 1494 1495 1493 1493 1493 1492 1493 1497 1497 1497 1497 1493 1490 1490 1491 1493 1496 1495 1494 1493 1490 1488 1488 1488 1487 1485 1479 1478 1482 1477 1465 1463 1466 1462 1457 1453 1449 1447 1448 1448 1448 1448 1447 1446 1444 1443 1442 1441 1439
1497 1499 1500 1500 1500 1500 1500 1500 1499 1499 1500 1500 1502 1503 1505 1506 1507 1506 1504 1501 1500 1499 1499 1502 1504 1503 1502 1500 1499 1502 1503 1502 1503 1504 1505 1505 1504 1502 1498 1496 1495 1494 1495 1495 1494 1495 1496 1496 1497 1497 1494 1491 1492 1494 1495 1497 1496 1493 1490 1488 1485 1483 1482 1480 1477 1474 1474 1476 1472 1468 1467 1465 1462 1460 1454 1449 1448 1448 1448 1448 1448 1447 1445 1443 1441 1440 1439 1437
1498 1499 1500 1500 1500 1500 1500 1500 1499 1500 1501 1502 1504 1505 1506 1507 1508 1507 1505 1504 1503 1502 1502 1505 1506 1504 1503 1502 1501 1504 1506 1506 1506 1505 1506 1507 1506 1503 1502 1499 1497 1497 1496 1496 1497 1496 1496 1497 1496 1495 1495 1494 1493 1494 1495 1493 1492 1490 1485 1481 1478 1476 1475 1476 1476 1475 1476 1476 1473 1471 1471 1465 1459 1457 1454 1451 1451 1450 1448 1446 1445 1444 1444 1442 1441 1439 1437 1436
1500 1501 1501 1501 1502 1503 1502 1502 1501 1502 1504 1506 1507 1507 1508 1508 1509 1508 1506 1505 1505 1506 1506 1507 1506 1504 1504 1505 1505 1507 1508 1508 1507 1506 1507 1507 1506 1504 1503 1501 1500 1500 1499 1498 1498 1497 1497 1498 1495 1496 1499 1498 1495 1494 1492 1491 1490 1487 1479 1473 1472 1474 1474 1473 1473 1473 1473 1472 1470 1471 1471 1464 1455 1453 1453 1452 1451 1450 1448 1445 1443 1443 1443 1442 1441 1440 1438 1436
1501 1502 1502 1501 1504 1505 1505 1505 1504 1505 1508 1510 1510 1510 1509 1509 1509 1508 1506 1505 1505 1507 1508 1507 1505 1504 1504 1505 1507 1508 1507 1507 1506 1505 1505 1505 1504 1503 1502 1500 1500 1501 1501 1500 1498 1498 1498 1497 1497 1499 1501 1501 1498 1493 1490 1493 1490 1478 1468 1465 1465 1468 1470 1469 1469 1468 1466 1467 1469 1468 1464 1458 1454 1454 1455 1454 1454 1453 1451 1449 1447 1444 1443 1442 1441 1440 1438 1436